This demonstration page uses our WeatherBlox Daily Observations layout. Learn more.

41.55636, -103.73856

Hourly Observations for May 24, 2017

Temp ( °F °C ) Dew Point ( °F °C ) Humidity (%) Winds ( mph kmh ) Pressure ( in mb ) Visibility ( mi km ) Precip ( " mm )
12:53 am 00:53 Clear 44 6.7 38 3.3 79 79 Calm 29.94 1014 10 16.0934 0 0
1:53 am 01:53 Clear 42 5.6 37 2.8 82 82 E 3 6 29.91 1013 10 16.0934 0 0
2:53 am 02:53 Clear 39 3.9 35 1.7 86 86 E 7 11 29.88 1012 10 16.0934 0 0
3:53 am 03:53 Clear 39 3.9 35 1.7 86 86 E 9 15 29.84 1010 10 16.0934 0 0
4:53 am 04:53 Clear 38 3.3 34 1.1 86 86 ESE 9 15 29.81 1009 10 16.0934 0 0
5:53 am 05:53 Sunny 38 3.3 34 1.1 86 86 ESE 10 17 29.78 1008 10 16.0934 0 0
6:53 am 06:53 Sunny 41 5 36 2.2 82 82 ESE 13 20 29.75 1007 10 16.0934 0 0
7:53 am 07:53 Sunny 48 8.9 39 3.9 71 71 ESE 13 20 29.73 1007 10 16.0934 0 0
8:53 am 08:53 Sunny 55 12.8 41 5 59 59 ESE 13 20 29.69 1005 10 16.0934 0 0
9:53 am 09:53 Sunny 61 16.1 42 5.6 50 50 ESE 10 17 29.64 1004 10 16.0934 0 0
10:53 am 10:53 Sunny 68 20 42 5.6 39 39 ESE 9 15 29.59 1002 10 16.0934 0 0
11:53 am 11:53 Sunny 72 22.2 45 7.2 38 38 ESE 6 9 29.55 1001 10 16.0934 0 0
12:53 pm 12:53 Sunny 76 24.4 44 6.7 32 32 SSE 7 11 29.51 999 10 16.0934 0 0
1:53 pm 13:53 Sunny 79 26.1 43 6.1 28 28 ESE 5 7 29.47 998 10 16.0934 0 0
2:53 pm 14:53 Sunny 81 27.2 43 6.1 26 26 SSE 7 11 29.44 997 10 16.0934 0 0
3:53 pm 15:53 Sunny 81 27.2 45 7.2 28 28 SE 14 22 29.4 996 10 16.0934 0 0
4:53 pm 16:53 Sunny 81 27.2 48 8.9 32 32 SE 14 22 29.37 995 10 16.0934 0 0
5:53 pm 17:53 Sunny 79 26.1 49 9.4 35 35 ESE 15 24 29.34 994 10 16.0934 0 0
6:53 pm 18:53 Sunny 78 25.6 51 10.6 39 39 ESE 8 13 29.32 993 10 16.0934 0 0
7:53 pm 19:53 Sunny 77 25 46 7.8 33 33 WNW 3 6 29.31 992 10 16.0934 0 0
8:53 pm 20:53 Clear 66 18.9 47 8.3 50 50 NW 7 11 29.33 993 10 16.0934 0 0
9:53 pm 21:53 Clear 69 20.6 41 5 36 36 W 6 9 29.33 993 10 16.0934 0 0
10:53 pm 22:53 Clear 69 20.6 39 3.9 33 33 W 6 9 29.31 993 10 16.0934 0 0
11:53 pm 23:53 Clear 58 14.4 45 7.2 62 62 ENE 6 9 29.32 993 10 16.0934 0 0

Powered by AerisWeather